When you browse on this site, cookies collect data to enhance your experience and personalize the content and advertising you see.
Visit our Privacy Policy to learn more. By continuing to use the site, you agree to this use of cookies and data.
  • In Lithuania
  • List of Countries
  • For 7 days
  • Water Temperature
  • Satellite Maps
  • Weather Map
  • Weather Widgets
  • user-avatar
    Login

    Hourly Weather Kamarang

    Today, 20 November, Tuesday

    Time Temperature Precipitation Wind Pressure Humidity
    00:00 +21°C° 0.1 mm 0 mps 712 mmHg 99%
    01:00 +21°C° 0.1 mm 0 mps 712 mmHg 99%
    02:00 +21°C° 0.1 mm 0 mps 712 mmHg 99%
    03:00 +21°C° 0.1 mm 0 mps 712 mmHg 99%
    04:00 +21°C° 0.1 mm 0 mps 712 mmHg 99%
    05:00 +21°C° 0.1 mm 0 mps 712 mmHg 99%
    06:00 +21°C° 0.1 mm 0 mps 712 mmHg 97%
    07:00 +22°C° 0.1 mm 0 mps 712 mmHg 96%
    08:00 +22°C° 0.1 mm 0 mps 713 mmHg 94%
    09:00 +26°C° 0.1 mm 1 mps 713 mmHg 84%
    10:00 +28°C° 0.1 mm 1 mps 713 mmHg 74%
    11:00 +30°C° 0.1 mm 1 mps 714 mmHg 63%
    12:00 +30°C° 0.5 mm 1 mps 713 mmHg 66%
    13:00 +30°C° 0.5 mm 1 mps 712 mmHg 69%
    14:00 +30°C° 0.5 mm 2 mps 711 mmHg 73%
    15:00 +28°C° 1 mm 1 mps 710 mmHg 80%
    16:00 +27°C° 1 mm 1 mps 710 mmHg 87%
    17:00 +26°C° 1 mm 1 mps 710 mmHg 94%
    18:00 +25°C° 0.7 mm 1 mps 711 mmHg 95%
    19:00 +24°C° 0.7 mm 1 mps 711 mmHg 97%
    20:00 +24°C° 0.7 mm 1 mps 712 mmHg 98%
    21:00 +24°C° 0.5 mm 1 mps 712 mmHg 98%
    22:00 +23°C° 0.5 mm 1 mps 713 mmHg 99%
    23:00 +23°C° 0.5 mm 1 mps 713 mmHg 99%

    Tomorrow, 21 November, Wednesday

    Time Temperature Precipitation Wind Pressure Humidity
    00:00 +23°C° 0.2 mm 1 mps 712 mmHg 99%
    01:00 +23°C° 0.2 mm 1 mps 712 mmHg 99%
    02:00 +23°C° 0.2 mm 1 mps 712 mmHg 99%
    03:00 +23°C° 0.1 mm 1 mps 712 mmHg 99%
    04:00 +23°C° 0.1 mm 1 mps 712 mmHg 99%
    05:00 +23°C° 0.1 mm 1 mps 712 mmHg 99%
    06:00 +23°C° 0.1 mm 1 mps 712 mmHg 98%
    07:00 +24°C° 0.1 mm 1 mps 713 mmHg 97%
    08:00 +24°C° 0.1 mm 1 mps 714 mmHg 96%
    09:00 +26°C° 0.1 mm 1 mps 714 mmHg 86%
    10:00 +28°C° 0.1 mm 1 mps 714 mmHg 77%
    11:00 +30°C° 0.1 mm 1 mps 714 mmHg 67%
    12:00 +30°C° 0.3 mm 1 mps 713 mmHg 68%
    13:00 +30°C° 0.3 mm 1 mps 712 mmHg 68%
    14:00 +30°C° 0.3 mm 2 mps 711 mmHg 69%
    15:00 +29°C° 0.8 mm 2 mps 710 mmHg 74%
    16:00 +28°C° 0.8 mm 2 mps 710 mmHg 80%
    17:00 +27°C° 0.8 mm 2 mps 710 mmHg 86%
    18:00 +25°C° 0.4 mm 1 mps 711 mmHg 90%
    19:00 +24°C° 0.4 mm 1 mps 711 mmHg 94%
    20:00 +23°C° 0.4 mm 1 mps 712 mmHg 98%
    21:00 +23°C° 0.1 mm 1 mps 712 mmHg 98%
    22:00 +21°C° 0.1 mm 0 mps 712 mmHg 99%
    23:00 +21°C° 0.1 mm 0 mps 712 mmHg 99%

    Day after tomorrow, 22 November, Thursday

    Time Temperature Precipitation Wind Pressure Humidity
    00:00 +21°C° 0 mm 0 mps 712 mmHg 99%
    01:00 +21°C° 0 mm 0 mps 712 mmHg 99%
    02:00 +21°C° 0 mm 0 mps 711 mmHg 99%
    03:00 +20°C° 0 mm 0 mps 711 mmHg 99%
    04:00 +20°C° 0 mm 0 mps 711 mmHg 99%
    05:00 +20°C° 0 mm 0 mps 711 mmHg 99%
    06:00 +21°C° 0 mm 0 mps 712 mmHg 96%
    07:00 +22°C° 0 mm 0 mps 712 mmHg 93%
    08:00 +24°C° 0 mm 1 mps 713 mmHg 90%
    09:00 +26°C° 0 mm 1 mps 713 mmHg 80%
    10:00 +28°C° 0 mm 1 mps 713 mmHg 70%
    11:00 +29°C° 0 mm 1 mps 713 mmHg 61%
    12:00 +30°C° 0.1 mm 1 mps 712 mmHg 57%
    13:00 +31°C° 0.1 mm 2 mps 711 mmHg 53%
    14:00 +32°C° 0.1 mm 2 mps 710 mmHg 49%
    15:00 +31°C° 0.1 mm 2 mps 710 mmHg 56%
    16:00 +30°C° 0.1 mm 2 mps 710 mmHg 63%
    17:00 +28°C° 0.1 mm 2 mps 709 mmHg 70%
    18:00 +27°C° 0.2 mm 1 mps 710 mmHg 78%
    19:00 +25°C° 0.2 mm 1 mps 711 mmHg 87%
    20:00 +23°C° 0.2 mm 1 mps 711 mmHg 95%
    21:00 +23°C° 0.4 mm 1 mps 711 mmHg 96%
    22:00 +21°C° 0.4 mm 0 mps 712 mmHg 97%
    23:00 +21°C° 0.4 mm 0 mps 712 mmHg 98%

    23 November, Friday

    Time Temperature Precipitation Wind Pressure Humidity
    00:00 +20°C° 0.1 mm 0 mps 711 mmHg 98%
    01:00 +20°C° 0.1 mm 0 mps 711 mmHg 99%
    02:00 +20°C° 0.1 mm 0 mps 711 mmHg 99%
    03:00 +20°C° 0 mm 0 mps 711 mmHg 99%
    04:00 +20°C° 0 mm 0 mps 711 mmHg 98%
    05:00 +20°C° 0 mm 0 mps 711 mmHg 98%
    06:00 +21°C° 0 mm 0 mps 711 mmHg 94%
    07:00 +22°C° 0 mm 0 mps 712 mmHg 90%
    08:00 +23°C° 0 mm 0 mps 712 mmHg 86%
    09:00 +26°C° 0 mm 1 mps 712 mmHg 77%
    10:00 +28°C° 0 mm 1 mps 712 mmHg 68%
    11:00 +30°C° 0 mm 1 mps 712 mmHg 59%
    12:00 +31°C° 0.1 mm 1 mps 711 mmHg 56%
    13:00 +32°C° 0.1 mm 2 mps 710 mmHg 52%
    14:00 +32°C° 0.1 mm 2 mps 710 mmHg 49%
    15:00 +31°C° 0.3 mm 2 mps 709 mmHg 57%
    16:00 +29°C° 0.3 mm 2 mps 709 mmHg 66%
    17:00 +28°C° 0.3 mm 1 mps 709 mmHg 74%
    18:00 +26°C° 0.4 mm 1 mps 710 mmHg 81%
    19:00 +25°C° 0.4 mm 1 mps 710 mmHg 88%
    20:00 +23°C° 0.4 mm 1 mps 711 mmHg 95%
    21:00 +23°C° 0.1 mm 1 mps 711 mmHg 96%
    22:00 +21°C° 0.1 mm 0 mps 711 mmHg 97%
    23:00 +20°C° 0.1 mm 0 mps 711 mmHg 98%

    24 November, Saturday

    Time Temperature Precipitation Wind Pressure Humidity
    00:00 +20°C° 0 mm 0 mps 711 mmHg 98%
    01:00 +20°C° 0 mm 0 mps 711 mmHg 98%
    02:00 +20°C° 0 mm 0 mps 710 mmHg 98%
    03:00 +20°C° 0 mm 0 mps 710 mmHg 98%
    04:00 +20°C° 0 mm 0 mps 711 mmHg 98%
    05:00 +20°C° 0 mm 0 mps 711 mmHg 97%
    06:00 +21°C° 0 mm 0 mps 711 mmHg 93%
    07:00 +22°C° 0 mm 0 mps 712 mmHg 89%
    08:00 +25°C° 0 mm 1 mps 712 mmHg 84%
    09:00 +27°C° 0 mm 1 mps 712 mmHg 75%
    10:00 +28°C° 0 mm 1 mps 712 mmHg 66%
    11:00 +30°C° 0 mm 1 mps 712 mmHg 57%
    12:00 +31°C° 0 mm 1 mps 712 mmHg 56%
    13:00 +31°C° 0 mm 1 mps 711 mmHg 54%
    14:00 +32°C° 0 mm 1 mps 710 mmHg 52%
    15:00 +30°C° 0.1 mm 1 mps 710 mmHg 59%
    16:00 +29°C° 0.1 mm 1 mps 710 mmHg 66%
    17:00 +28°C° 0.1 mm 1 mps 710 mmHg 74%
    18:00 +26°C° 0.5 mm 1 mps 710 mmHg 80%
    19:00 +25°C° 0.5 mm 1 mps 711 mmHg 87%
    20:00 +24°C° 0.5 mm 1 mps 711 mmHg 94%
    21:00 +23°C° 0.1 mm 1 mps 711 mmHg 95%
    22:00 +23°C° 0.1 mm 1 mps 711 mmHg 97%
    23:00 +23°C° 0.1 mm 1 mps 711 mmHg 98%

    25 November, Sunday

    Time Temperature Precipitation Wind Pressure Humidity
    00:00 +21°C° 0 mm 0 mps 711 mmHg 98%
    01:00 +21°C° 0 mm 0 mps 711 mmHg 98%
    02:00 +21°C° 0 mm 0 mps 711 mmHg 98%
    03:00 +21°C° 0 mm 0 mps 711 mmHg 97%
    04:00 +20°C° 0 mm 0 mps 711 mmHg 97%
    05:00 +20°C° 0 mm 0 mps 711 mmHg 97%
    06:00 +21°C° 0 mm 0 mps 712 mmHg 93%
    07:00 +22°C° 0 mm 0 mps 712 mmHg 89%
    08:00 +25°C° 0 mm 1 mps 713 mmHg 84%
    09:00 +27°C° 0 mm 1 mps 713 mmHg 76%
    10:00 +29°C° 0 mm 1 mps 713 mmHg 68%
    11:00 +30°C° 0 mm 2 mps 713 mmHg 60%
    12:00 +30°C° 0.3 mm 2 mps 712 mmHg 62%
    13:00 +31°C° 0.3 mm 2 mps 711 mmHg 63%
    14:00 +31°C° 0.3 mm 2 mps 710 mmHg 64%
    15:00 +29°C° 0.7 mm 2 mps 710 mmHg 72%
    16:00 +28°C° 0.7 mm 2 mps 710 mmHg 80%
    17:00 +27°C° 0.7 mm 1 mps 710 mmHg 88%
    18:00 +25°C° 0.3 mm 1 mps 710 mmHg 91%
    19:00 +24°C° 0.3 mm 1 mps 711 mmHg 95%
    20:00 +23°C° 0.3 mm 1 mps 711 mmHg 98%
    21:00 +23°C° 0 mm 1 mps 712 mmHg 98%
    22:00 +23°C° 0 mm 1 mps 712 mmHg 98%
    23:00 +23°C° 0 mm 1 mps 712 mmHg 98%
    Show more